sat.trackr.live / text

‹ back to catalog

STARLINK-30182

NORAD 57412 · 2023-102J

PAYLOAD ACTIVE UNKNOWN

§ Identity

Operator
Country
US
Launch date
2023-07-20
Launch site
AFWTR
Launch vehicle
Mass (kg)
RCS (m²)

Purposes: comms

External: N2YO · Heavens-Above · Gunter

§ Orbital elements

Epoch: 2026-05-25T02:01:40.082880Z

Period
94.27 min
Inclination
43.0050°
Eccentricity
0.0002019
Mean motion
15.27578288 rev/d
Perigee alt
481.7 km
Apogee alt
484.4 km
Semi-major
6,861.2 km
B*
4.2682e-5
RAAN
177.1306°
Arg perigee
267.2112°
Mean anomaly
92.8509°
Rev number
15,792

§ Raw data

STARLINK-301821 57412U 23102J   26145.08449170  .00000912  00000+0  42682-4 0  99952 57412  43.0050 177.1306 0002019 267.2112  92.8509 15.27578288157921

JSON: /api/v1/satellites/57412 · /tle

For live sub-satellite position, see the globe view (requires WebGL).

§ Visibility from observer

Set your observer location to see the next 7 days of passes ≥ 10°. The values pass through the URL so the page stays shareable.

No JS? Fill the form by hand. The geolocation button needs JavaScript.